Location: Blandas
(43.9120°N, 3.5124°E)
Time: 23:51:18
(UTC+00:00)

Daily predictions for brighter satellites

Satellite Brightness Start Highest point End
(mag) Time Altitude Azimuth Time Altitude Azimuth Time Altitude Azimuth
Unknown 4.3 19:10:08 10° NW 19:14:10 47° NNE 19:18:10 10° E
Unknown 3.7 19:10:27 10° NW 19:14:19 63° NNE 19:18:11 10° ESE
ATLAS 3B R/B 3.7 19:08:18 10° NW 19:14:38 47° WSW 19:21:10 10° S
Unknown 4.2 19:11:49 10° NW 19:15:51 48° NNE 19:19:52 10° ESE
Okean 1 4.4 19:13:37 10° NNE 19:17:03 27° ENE 19:20:28 10° SE
SJ-11-01 4.3 19:12:28 10° SSE 19:17:10 80° ENE 19:21:56 10° N
Unknown 4.2 19:13:30 10° NW 19:17:33 49° NNE 19:21:34 10° ESE
USA 234 3.4 19:12:06 10° SE 19:18:41 85° SW 19:25:17 10° NW
Unknown 4.1 19:15:02 10° NW 19:19:03 50° NNE 19:23:03 10° ESE
Cosmos 773 Rocket 4.1 19:15:34 10° NNW 19:20:41 57° ENE 19:25:44 10° SE
Unknown 4.1 19:16:47 10° NW 19:20:51 51° NNE 19:24:54 10° ESE
Unknown 3.4 19:17:44 10° NW 19:21:35 77° NE 19:25:25 10° ESE
Unknown 4.1 19:18:26 10° NW 19:22:31 53° NNE 19:26:35 10° ESE
Unknown 4.1 19:20:06 10° NW 19:24:10 53° NNE 19:28:12 10° ESE
Unknown 4.1 19:21:43 10° NW 19:25:47 54° NNE 19:29:45 11° ESE
SL-08 RB Rocket 4.5 19:21:57 10° SE 19:26:02 35° ENE 19:30:11 10° N
Unknown 4.0 19:23:27 10° NW 19:27:33 56° NNE 19:31:26 11° ESE
FREGAT/IRIS 4.0 19:25:08 10° SSW 19:27:46 36° W 19:30:25 10° NNW
Unknown 4.3 19:24:48 10° WNW 19:28:04 38° SW 19:31:20 10° SSE
Unknown 4.1 19:24:51 10° NW 19:28:56 54° NNE 19:32:46 11° ESE
Abrixas rocket 2.5 19:28:17 10° SW 19:31:12 41° SSE 19:34:09 10° ENE
Unknown 4.0 19:28:15 10° NW 19:32:20 56° NNE 19:36:02 12° ESE
CZ-2C R/B 4.3 19:28:20 10° N 19:33:02 66° WNW 19:37:36 10° SSW
Meteor 1-20 Rocket 4.3 19:28:11 10° S 19:33:57 70° E 19:39:42 10° NNE
Unknown 4.0 19:29:53 10° NW 19:34:00 58° NNE 19:37:38 13° ESE
Unknown 3.8 19:31:43 10° NW 19:35:51 63° NNE 19:39:23 14° ESE
Unknown 3.9 19:33:11 10° NW 19:37:18 61° NNE 19:40:47 14° ESE
Cosmos 1777 Rocket 4.0 19:32:31 10° S 19:37:43 66° ESE 19:42:58 10° NNE
Cosmos 44 3.2 19:34:04 10° NNW 19:38:33 61° NE 19:42:15 14° SE
Unknown 3.9 19:34:53 10° NW 19:39:00 62° NNE 19:42:26 14° ESE
H-2A R/B 2.0 19:34:51 10° SSE 19:39:53 70° ENE 19:44:51 10° N
Shenzhou-11 Module 3.5 19:38:49 10° SSW 19:40:42 17° SSE 19:41:12 16° SE
Unknown 3.8 19:38:15 10° NW 19:42:23 65° NNE 19:45:40 16° ESE
Cosmos 2221 Rocket 3.7 19:38:03 10° N 19:42:23 54° ENE 19:46:42 10° SSE
Unknown 3.8 19:39:50 10° NW 19:43:59 67° NNE 19:47:11 16° ESE
SJ-6B 3.5 19:40:57 10° S 19:44:48 58° W 19:48:47 10° NNW
Unknown 3.7 19:41:31 10° NW 19:45:39 69° NNE 19:48:49 17° ESE
COSMOS 2406 4.3 19:41:27 10° SSE 19:45:46 23° E 19:50:07 10° NE
Unknown 3.7 19:43:08 10° NW 19:47:17 71° NNE 19:50:22 17° ESE
Unknown 3.7 19:44:50 10° NW 19:49:00 73° NNE 19:52:00 18° ESE
Cosmos 2292 Rocket 3.7 19:43:50 10° N 19:49:09 83° W 19:53:06 10° S
Okean 1-7 3.7 19:46:33 10° NNW 19:50:53 57° W 19:55:11 10° S
OAO 3 Rocket 4.4 19:47:25 10° SW 19:51:17 24° S 19:53:33 17° SE
Unknown 3.6 19:48:27 10° NW 19:52:38 85° NE 19:55:29 19° ESE
CZ-2C R/B 3.8 19:49:20 10° NE 19:53:24 22° E 19:55:40 17° SE
Cosmos 1538 Rocket 4.0 19:48:53 10° NNW 19:54:05 89° ENE 19:59:05 11° SSE
Unknown 3.6 19:50:04 10° NW 19:54:13 86° NE 19:57:01 20° ESE
Resurs 1-3 3.5 19:50:17 10° SSE 19:54:40 81° ENE 19:59:04 10° N
Unknown 3.6 19:51:34 10° NW 19:55:44 83° NE 19:58:28 21° ESE
Cosmos 1602 3.6 19:52:04 10° S 19:55:51 66° E 19:59:40 10° NNE
Unknown 3.6 19:53:09 10° NW 19:57:19 83° NNE 20:00:00 21° ESE
Aureole 3 Rocket 4.1 19:57:32 19° ESE 19:57:57 19° E 20:00:30 10° NE
Cosmos 1680 Rocket 4.3 19:53:32 10° N 19:58:20 35° ENE 20:01:24 19° ESE
MetOp-A 4.2 19:53:54 11° SSE 19:58:59 68° ENE 20:04:19 10° N
Unknown 3.6 19:56:29 10° NW 20:00:39 87° NNE 20:03:12 23° ESE
Unknown 3.6 19:58:09 10° NW 20:02:18 89° NNE 20:04:47 24° SE
Unknown 3.6 19:59:48 10° NW 20:03:58 89° SSW 20:06:23 24° SE
Unknown 3.6 20:01:28 10° NW 20:05:38 86° SW 20:07:59 25° SE
Meteor 2-19 Rocket 4.4 20:02:46 10° N 20:08:58 88° E 20:15:05 10° S
SL-24 R/B 4.3 20:06:37 14° SSE 20:10:45 66° E 20:15:35 10° N
Unknown 3.6 20:08:05 10° WNW 20:12:14 78° SW 20:14:19 28° SE
ARGOS 3.5 20:07:18 10° S 20:12:36 64° WSW 20:17:57 10° NNW
OAO 2 Rocket 4.4 20:09:16 10° WSW 20:13:42 29° S 20:15:38 22° SSE
Unknown 3.6 20:09:44 10° WNW 20:13:53 75° SW 20:15:55 29° SE
Cosmos 2098 Rocket 4.5 20:10:28 10° NNE 20:14:11 26° ENE 20:15:39 23° ESE
Meteor 2-4 Rocket 3.7 20:09:35 10° N 20:14:53 55° ENE 20:18:06 23° SE
Unknown 3.6 20:11:27 10° WNW 20:15:35 73° SW 20:17:33 30° SE
ADEOS Rocket 3.0 20:10:51 10° NNE 20:16:48 88° ESE 20:23:23 10° SSW
Unknown 3.7 20:13:03 10° WNW 20:17:11 71° SW 20:19:06 30° SE
Unknown 3.7 20:14:47 10° WNW 20:18:55 69° SW 20:20:46 31° SE
ERS-1 Rocket 4.0 20:18:29 23° ESE 20:20:21 29° ENE 20:24:40 10° N
Resurs 01 Rocket 1.8 20:16:45 14° S 20:20:28 70° WSW 20:24:54 10° NNW
Okean 3 3.3 20:17:50 10° N 20:22:02 89° E 20:24:37 23° S
Unknown 3.8 20:18:06 10° WNW 20:22:13 65° SW 20:23:56 33° SSE
Cosmos 44 Rocket 3.8 20:17:55 10° NNW 20:22:32 44° NE 20:24:32 28° ESE
Cosmos 1500 3.9 20:22:20 32° ESE 20:22:39 33° E 20:26:08 10° NNE
Starlink (trailer) 3.8 20:19:46 10° WNW 20:23:53 63° SW 20:25:31 33° SSE
DMSP B5D2-2 4.0 20:18:48 10° NNE 20:24:04 72° ESE 20:29:18 10° S
Unknown 3.8 20:21:28 10° WNW 20:25:34 61° SW 20:27:09 34° SSE
Unknown 3.9 20:23:06 10° WNW 20:27:11 59° SW 20:28:43 35° SSE
SJ 16-02 2.8 20:30:58 21° ENE 20:30:58 21° ENE 20:33:22 10° NE
Meteor 1-11 Rocket 4.0 20:27:38 21° SSE 20:31:29 53° E 20:37:16 10° NNE
Aureole 2 Rocket 1.7 20:30:32 10° NNW 20:33:08 79° WNW 20:33:08 79° WNW
Unknown 4.0 20:29:44 10° WNW 20:33:47 52° SW 20:35:04 36° SSE
SPOT 1/Viking Rocket 4.2 20:32:45 30° ESE 20:34:34 40° ENE 20:39:25 10° N
Unknown 4.1 20:31:28 10° WNW 20:35:29 50° SW 20:36:43 37° S
Unknown 4.1 20:33:09 10° WNW 20:37:10 48° SW 20:38:20 36° S
Unknown 4.2 20:34:47 10° WNW 20:38:46 47° SW 20:39:54 37° S
Spot 2 Rocket 3.5 20:36:31 25° S 20:39:33 82° WSW 20:44:40 10° NNW
IGS 5A 4.2 20:39:39 33° E 20:40:05 34° ENE 20:43:51 10° N
MTI 3.7 20:37:09 10° N 20:40:20 83° WNW 20:40:59 54° SSW
Unknown 4.3 20:36:35 10° WNW 20:40:32 44° SW 20:41:36 35° S
Cosmos 1937 Rocket 4.1 20:40:52 34° ESE 20:41:16 35° E 20:46:03 10° NE
Unknown 4.3 20:38:10 10° WNW 20:42:07 44° SW 20:43:07 37° S
CZ-2C R/B 3.4 20:39:46 19° S 20:43:05 55° W 20:47:47 10° NNW
Unknown 4.4 20:39:57 10° WNW 20:43:51 41° SW 20:44:48 35° S
Cosmos 1809 Rocket 4.4 20:39:02 10° N 20:45:15 78° E 20:48:30 30° SSE
Unknown 4.3 20:41:28 10° WNW 20:45:24 42° SW 20:46:17 36° S
Unknown 4.3 20:41:53 10° WNW 20:45:51 43° SW 20:46:43 37° S
Cosmos 990 Rocket 4.2 20:45:08 38° SSE 20:46:32 48° ESE 20:51:32 10° NNE
Unknown 4.4 20:43:13 10° WNW 20:47:07 40° SW 20:47:56 36° SSW
Cosmos 1386 Rocket 4.4 20:42:24 10° N 20:48:32 88° E 20:52:00 28° S
EO 1 Del DPAF 3.9 20:45:30 10° NNE 20:48:25 39° ENE 20:48:25 39° ENE
USA 245 3.7 20:48:03 45° SSE 20:49:27 77° ENE 20:54:49 10° N
Meteor 2-14 Rocket 4.4 20:46:37 10° N 20:52:43 70° E 20:55:14 37° SSE
Cosmos 1782 Rocket 4.4 20:55:08 34° ENE 20:55:08 34° ENE 20:58:37 10° NNE
Meteor 2-21 4.4 20:49:37 10° N 20:55:49 84° E 20:58:42 34° SSE
Cosmos 1733 Rocket 4.0 20:52:41 10° SSW 20:56:50 46° WNW 21:01:00 10° N
Cosmos 158 Rocket 4.3 20:51:58 10° NNW 20:57:08 51° ENE 20:58:19 43° ESE
ASTEX 1 3.7 20:52:21 10° N 20:57:17 66° W 21:00:36 20° SSW
Cosmos 1378 Rocket 3.4 20:52:58 10° N 20:57:24 87° ENE 20:58:19 56° SSE
Landsat 7 3.8 20:58:33 53° SE 20:59:28 66° ENE 21:04:12 10° N
Cosmos 2082 Rocket 3.4 21:01:47 25° ENE 21:01:47 25° ENE 21:05:03 10° NE
EXPRESS MD2 3.4 20:56:59 10° WNW 21:00:14 48° NNW 21:00:14 48° NNW
Cosmos 2112 Rocket 4.0 20:56:10 10° NNW 21:01:27 81° WSW 21:03:02 46° S
Cosmos 1674 Rocket 4.0 20:57:35 10° NNW 21:01:53 57° W 21:03:18 37° SSW
Cosmos 1515 4.5 20:59:26 10° NNW 21:03:05 47° W 21:04:00 38° SW
Cosmos 1833 Rocket 3.0 21:04:38 43° ESE 21:04:38 43° ESE 21:09:44 10° NE
Meteor 1-5 Rocket 4.4 21:01:26 17° SSW 21:05:57 75° W 21:11:36 10° N
Abrixas rocket 3.3 21:04:11 10° W 21:06:43 41° NW 21:06:43 41° NW
Meteor 2-21 Rocket 4.4 21:06:48 10° N 21:12:59 89° E 21:15:08 44° S
FALCON 9 R/B 4.1 20:49:49 10° SW 21:13:19 39° S 21:15:51 35° SE
Cosmos 1066 Rocket 4.2 21:08:23 10° N 21:13:43 55° ENE 21:14:19 52° E
BREEZE-M DEB (TANK) 4.4 21:10:06 10° WNW 21:14:13 46° N 21:23:45 10° ENE
Cosmos 1656 3.6 21:09:01 10° NNW 21:14:44 81° ENE 21:15:54 57° SE
Cosmos 1697 Rocket 3.0 21:11:50 10° NNW 21:17:23 52° ENE 21:18:19 47° E
Cosmos 1709 Rocket 3.9 21:11:47 10° N 21:17:56 89° E 21:19:50 48° S
GP-B 3.9 21:16:47 10° N 21:21:04 48° W 21:22:29 35° SW
Cosmos 1666 3.8 21:22:39 36° NNE 21:22:39 36° NNE 21:25:05 10° NNE
Cosmos 1975 Rocket 3.3 21:16:55 10° N 21:20:54 58° NE 21:20:54 58° NE
MOS 1 Rocket 3.7 21:16:27 10° NNE 21:21:42 55° E 21:21:42 55° E
Cosmos 2315 Rocket 3.9 21:21:22 41° S 21:23:48 87° E 21:30:12 10° N
Meteor 1-23 Rocket 4.1 21:18:05 10° N 21:23:52 88° W 21:25:03 58° S
Cosmos 2074 Rocket 4.5 21:19:21 10° N 21:25:20 43° ENE 21:26:00 42° E
Thor Agena Rocket 3.4 21:20:55 10° NNE 21:26:06 79° ESE 21:26:39 69° SSE
Cosmos 2184 Rocket 4.4 21:22:50 10° N 21:28:41 43° ENE 21:29:10 42° E
Cosmos 1536 3.6 21:28:42 46° W 21:29:10 48° WNW 21:33:08 10° N
COSMOS 2406 3.8 21:24:04 10° SW 21:29:38 55° WNW 21:35:16 10° NNE
Terra 1.9 21:29:58 65° ENE 21:29:58 65° ENE 21:34:33 10° N
Cosmos 1898 Rocket 3.9 21:29:49 26° SW 21:32:41 62° WNW 21:37:54 10° NNE
Cosmos 1346 Rocket 4.0 21:34:29 36° NNE 21:34:29 36° NNE 21:36:52 10° NNE
CZ-2C R/B 3.4 21:28:52 10° N 21:33:56 50° WNW 21:37:10 22° SW
Cosmos 1980 Rocket 2.7 21:33:58 10° NNW 21:39:21 44° ENE 21:39:42 43° ENE
BREEZE-M DEB (TANK) 3.3 21:37:28 10° WNW 21:39:54 48° WSW 21:39:54 48° WSW
SPOT 5 2.9 21:41:24 62° WNW 21:41:24 62° WNW 21:45:21 10° NNW
CARTOSAT-1 3.9 21:42:18 62° WNW 21:42:18 62° WNW 21:46:09 10° NNW
Cosmos 2369 3.6 21:43:51 10° NNW 21:49:32 80° WSW 21:49:45 78° SW
Meteor 2-8 Rocket 4.3 21:51:39 66° SSW 21:52:33 83° W 21:58:39 10° N
USA 229 DEB 4.0 21:47:18 10° NNW 21:54:30 65° NE 21:56:09 52° E
USA 229 4.0 21:47:24 10° NNW 21:54:36 64° NE 21:56:14 52° E
Okean 2 Rocket 4.2 21:56:27 39° NNE 21:56:27 39° NNE 21:59:16 10° NNE
ERS-1 Rocket 4.0 21:58:29 35° WSW 21:59:01 36° W 22:03:38 10° NNW
Sich 1 Rocket 4.4 22:02:08 50° WNW 22:02:08 50° WNW 22:06:07 10° N
SJ 16-02 2.7 22:07:54 34° WNW 22:08:16 34° WNW 22:12:20 10° N
ARGOS Delta rocket 4.4 22:19:23 60° NNE 22:19:23 60° NNE 22:23:54 10° N
Mayak 0.8 22:14:41 10° NNE 22:16:21 23° NNE 22:16:21 23° NNE
Cosmos 1610 Rocket 4.5 22:13:09 10° N 22:18:58 70° ENE 22:18:58 70° ENE
Cosmos 2360 4.4 22:16:08 10° NNW 22:21:14 69° WNW 22:21:14 69° WNW
Cosmos 2322 Rocket 3.4 22:21:46 10° N 22:26:43 31° NE 22:26:43 31° NE
Cosmos 2082 Rocket 3.0 22:43:35 44° WNW 22:44:08 45° WNW 22:49:36 10° NNE
BREEZE M DEB (TANK) 3.9 22:43:54 39° NW 22:45:02 49° N 22:55:19 10° ENE
Cosmos 1833 Rocket 4.2 22:46:15 24° W 22:48:29 31° NW 22:53:30 10° N
NOSS 3-1 (C) 3.9 22:41:48 10° NW 22:49:26 77° SW 22:49:54 75° SSW
Cosmos 2154 Rocket 4.2 22:47:08 10° NNW 22:52:50 67° WNW 22:52:50 67° WNW
SL-16 R/B 2.9 22:50:50 10° NNW 22:55:28 50° NNE 22:55:28 50° NNE
Cosmos 1697 Rocket 4.4 22:56:31 10° NW 23:00:02 23° W 23:00:02 23° W
Nadezhda 1 Rocket 4.4 23:01:29 55° WNW 23:01:29 55° WNW 23:07:21 10° N
Terra 4.3 23:08:51 14° WNW 23:08:51 14° WNW 23:10:34 10° WNW
Cosmos 2360 Rocket 3.3 23:12:56 10° NNW 23:17:35 37° NE 23:17:35 37° NE
Cosmos 1980 Rocket 3.8 23:18:22 10° NW 23:21:28 25° WNW 23:21:28 25° WNW
Cosmos 2219 Rocket 4.3 23:22:12 10° N 23:25:53 17° NE 23:27:36 15° ENE
Cosmos 2341 Rocket 4.5 23:25:13 10° NNW 23:30:35 55° WNW 23:30:35 55° WNW
Cosmos 2366 rocket 4.3 23:35:38 10° N 23:40:47 63° N 23:40:47 63° N
Lacrosse 4 Rocket 4.0 23:39:23 10° N 23:41:10 17° NNE 23:41:10 17° NNE
CZ-4C R/B 3.0 23:46:52 47° N 23:46:52 47° N 23:51:23 10° NNE
NOSS 3-1 (A) 4.5 23:41:28 10° NW 23:47:57 50° W 23:47:57 50° W
USA 267 4.2 23:46:01 15° E 23:51:03 43° NNE 23:57:10 10° NW
Mayak 1.6 23:51:47 10° NNW 23:52:56 13° NW 23:52:56 13° NW
